Find Starlink 2314

NORAD ID: 47788 Int'l Des: 2021-018 Owner: SPXS Country: US Constellation: starlink operational
LEOCIRCULAR

Current View

Loading 3D Globe...

About Starlink 2314

Starlink 2314 (NORAD 47788) is a starlink constellation satellite (v1.0) launched Mar 11, 2021 by SPXS of US. It operates in LEO, CIRCULAR orbit with a mass of 260.00 kg.

About Starlink 2314

Description loading...

Upcoming Passes

Passes for default location (London). Set your location on the main map for personalized predictions.

Altitude History

Loading altitude history...

Two-Line Element Set

1 47788U 21018B 26167.58497870 .00049666 00000-0 12307-2 0 9992
2 47788 53.1568 117.0533 0005005 53.0125 307.1337 15.39927926292257
Epoch: Jun 16, 2026 • Age: 16 hours

Current Status

Altitude 448.2 km
Velocity 7.65 km/s
Sub-Earth Point 48.17°N, 176.12°E
Launch Date Mar 11, 2021
Age 5.2 years
Type internet

Technical Details

Classification Payload
Mass 260.00 kg
Dry Mass 248.00 kg
Total Mass 260.00 kg
Length 0.20 m
Diameter 2.80 m
Span 9.00 m
Shape Box + pan
Manufacturer SPXS
Bus Type Starlink
Phase Status In Orbit
Owner/State SPXS/US

Most Searched